FENGYUN 1C DEB, 29777

Orbit data source: Space-Track

FENGYUN 1C DEB, 29777 is space debris in SSO originally from a launch on Mon, 10 May 1999 UTC launched from the Taiyaun Space Center, China (TSC). Fengyun 1C debris stems from the Chinese weather satellite Fengyun-1C, which was intentionally destroyed by a Chinese anti-satellite missile in 2007. This event dramatically increased the amount of space debris, with thousands of trackable fragments posing hazards to satellites and human spaceflight. The Fengyun 1C debris cloud has become a focal point in discussions about space sustainability and the need for international regulations to prevent the creation of new debris.

Loading next visibility...
Identifier
29777, 1999-025BT
Orbit
SSO
Country
Flag of CNCN / PRC
Related business
Manufacturer
Unknown
Mission
Spacecraft
Bus & Motor
Unknown
Mass
Unknown
Launch date (UTC)
1999-05-10 (27 years ago)
Launch vehicle
Unknown
Launch site
Taiyaun Space Center, China (TSC)
Object type
Payload
Rocket body
Debris
Shape & HBR
Unknown shape, 0.1 m
Radar Cross Section
Medium (>0.1 m² and <1 m²)

Expand to show TLE details & history
Last TLE update: 1 day ago

TLE from 1 day ago
0 FENGYUN 1C DEB
1 29777U 99025BT  26206.40092240  .00000099  00000-0  10938-3 0  9996
2 29777  99.2533 268.1548 0092183 323.0780  49.7017 13.92180864991677
Epoch: 2026-07-25T09:37Z
TLE epoch observation values (Epoch: 2026-07-25T09:37:19.695Z)
Latitude
13.37784°
Longitude
178.50014°
Altitude
879.951 km
Speed
7.435 km/s
True Right ascension
17h 43m 47s
True Declination
13° 18' 07"
Sunlit
Object was in full shadow at epoch
Visualization orbit readout
Latitude
Unknown
Longitude
Unknown
Altitude
Unknown
Speed
Unknown
Apparent Right ascension
Unknown
Apparent Declination
Unknown
Sunlit
N/A
Visualization observer readout
Local Sidereal Time
00:10:05
Azimuth
Unknown
Elevation
Unknown
Doppler factor
Unknown
Orbital elements
Apogee altitude
985.48 km
Perigee altitude
850.96 km
Semi-major axis
7,296.357 km
Eccentricity
0.00922
Inclination
99.2533°
RAAN
268.1548°
Arg. of periapsis
323.078°
True anomaly
50.51338°
Mean anomaly
49.7017°
Eccentric anomaly
50.10693°
Mean motion
3.48244 °/min
Orbital period
103.38 mins
BSTAR
0.00010938
Loading maneuver chart data...
Computing Atmospheric mass density...

Documentation

Showing up to 5 results
|